Time,TemperatureF,DewpointF,PressureIn,WindDirection,WindDirectionDegrees,WindSpeedMPH,WindSpeedGustMPH,Humidity,HourlyPrecipIn,Conditions,Clouds,dailyrainin,SoftwareType,DateUTC
2013-10-20 00:22:00,44.0,21.0,-100.00,NNW,330,1.0,2.0,40,-99.99,,,-99.99,,2013-10-20 07:22:00,
2013-10-20 00:32:00,44.0,21.0,-100.00,NNW,330,1.0,2.0,40,-99.99,,,-99.99,,2013-10-20 07:32:00,
2013-10-20 00:52:00,44.0,22.0,-100.00,NNW,330,1.0,4.0,40,-99.99,,,-99.99,,2013-10-20 07:52:00,
2013-10-20 01:11:00,44.0,22.0,-100.00,NNW,345,2.0,4.0,41,-99.99,,,-99.99,,2013-10-20 08:11:00,
2013-10-20 01:22:00,46.0,23.0,-100.00,WNW,300,1.0,2.0,40,-99.99,,,-99.99,,2013-10-20 08:22:00,
2013-10-20 01:42:00,46.0,23.0,-100.00,WNW,300,1.0,2.0,40,-99.99,,,-99.99,,2013-10-20 08:42:00,
2013-10-20 07:12:00,41.0,23.0,-100.00,NW,315,2.0,4.0,48,-99.99,,,-99.99,,2013-10-20 14:12:00,
2013-10-20 10:52:00,55.0,28.0,-100.00,NW,305,7.0,17.0,36,-99.99,,,-99.99,,2013-10-20 17:52:00,
2013-10-20 11:12:00,56.0,29.0,-100.00,WNW,290,7.0,17.0,35,-99.99,,,-99.99,,2013-10-20 18:12:00,
2013-10-20 14:43:00,68.0,30.0,-100.00,NNW,340,9.0,16.0,24,-99.99,,,-99.99,,2013-10-20 21:43:00,
2013-10-20 15:53:00,70.0,29.0,-100.00,NNW,330,11.0,18.0,22,-99.99,,,-99.99,,2013-10-20 22:53:00,
2013-10-20 16:03:00,70.0,29.0,-100.00,NNW,330,11.0,18.0,22,-99.99,,,-99.99,,2013-10-20 23:03:00,
2013-10-20 17:21:00,68.0,27.0,-100.00,NNW,330,10.0,19.0,21,-99.99,,,-99.99,,2013-10-21 00:21:00,
2013-10-20 17:32:00,68.0,27.0,-100.00,NNW,330,10.0,19.0,21,-99.99,,,-99.99,,2013-10-21 00:32:00,
2013-10-20 18:42:00,60.0,27.0,-100.00,WNW,290,6.0,10.0,28,-99.99,,,-99.99,,2013-10-21 01:42:00,
2013-10-20 19:42:00,57.0,25.0,-100.00,WNW,300,3.0,9.0,28,-99.99,,,-99.99,,2013-10-21 02:42:00,
2013-10-20 19:52:00,57.0,25.0,-100.00,NW,315,4.0,9.0,28,-99.99,,,-99.99,,2013-10-21 02:52:00,
2013-10-20 20:03:00,57.0,25.0,-100.00,NW,315,4.0,9.0,28,-99.99,,,-99.99,,2013-10-21 03:03:00,
2013-10-20 20:45:00,53.0,23.0,-100.00,WNW,285,2.0,6.0,31,-99.99,,,-99.99,,2013-10-21 03:45:00,
2013-10-20 21:44:00,49.0,22.0,-100.00,NW,305,1.0,2.0,35,-99.99,,,-99.99,,2013-10-21 04:44:00,
2013-10-20 22:13:00,48.0,22.0,-100.00,NW,320,2.0,6.0,35,-99.99,,,-99.99,,2013-10-21 05:13:00,
2013-10-20 22:43:00,47.0,21.0,-100.00,NNW,335,0.0,1.0,35,-99.99,,,-99.99,,2013-10-21 05:43:00,
2013-10-20 23:12:00,46.0,21.0,-100.00,WNW,295,1.0,4.0,36,-99.99,,,-99.99,,2013-10-21 06:12:00,
2013-10-20 23:42:00,46.0,21.0,-100.00,NNW,330,0.0,3.0,36,-99.99,,,-99.99,,2013-10-21 06:42:00,